Overview Statistics Trail Chart Weather Telemetry Raw packets
 

This is the latest recevied weather packets stored in our database for station/object KP3M-5. If no packets are shown the sender has not sent any weather packets the latest 10 day(s).

<< 1 2 3 4 5 6 >>
Time Temp. Humidity Pressure Rain* Wind** Luminosity Snow
1788368704 28.89° C 71% 1024 hPa - - - -
1788365105 28.89° C 69% 1024 hPa - - - -
1788361503 28.33° C 70% 1024 hPa - - - -
1788357904 26.67° C 79% 1024 hPa - - - -
1788354304 26.11° C 81% 1024 hPa - - - -
1788350704 26.11° C 83% 1024 hPa - - - -
1788347105 22.78° C 91% 1024 hPa - - - -
1788343504 22.22° C 90% 1024 hPa - - - -
1788339904 22.22° C 90% 1024 hPa - - - -
1788336303 22.22° C 89% 1024 hPa - - - -
1788300304 26.67° C 76% 1024 hPa - - - -
1788296704 27.78° C 70% 1024 hPa - - - -
1788293104 28.33° C 69% 1024 hPa - - - -
1788289506 28.33° C 68% 1024 hPa - - - -
1788285904 28.89° C 69% 1024 hPa - - - -
1788282305 29.44° C 68% 1024 hPa - - - -
1788278704 28.33° C 73% 1024 hPa - - - -
1788275126 27.78° C 76% 1024 hPa - - - -
1788271504 27.22° C 81% 1024 hPa - - - -
1788267904 25.56° C 84% 1024 hPa - - - -
1788264304 24.44° C 89% 1024 hPa - - - -
1788260705 22.22° C 94% 1024 hPa - - - -
1788257103 20.56° C 85% 1024 hPa - - - -
1788253525 21.11° C 84% 1024 hPa - - - -
1788249903 21.11° C 84% 1024 hPa - - - -

* Rain since midnight (hover to see other rain measurements)
** Current wind speed in m/s (hover to see current wind gust speed)